,,PressureMeas_1m,,PRMeasQMR101_1,,RHStat155_1m_1,,SRMeasQMS101R_1m,,TAStat155_1m_1,,GenWind_1,,GenWind_1,
2018-08-11, 00:00:07,VALID,919.704,VALID,0.0,VALID,82.256,VALID,-0.021,VALID,17.814,INVALID,360.0,VALID,0.0,
2018-08-11, 00:01:07,VALID,919.693,VALID,0.0,VALID,80.579,VALID,-0.03,VALID,18.189,INVALID,360.0,VALID,0.0,
2018-08-11, 00:02:07,VALID,919.683,VALID,0.0,VALID,79.88,VALID,-0.007,VALID,18.291,INVALID,360.0,VALID,0.0,
2018-08-11, 00:03:07,VALID,919.691,VALID,0.0,VALID,79.104,VALID,-0.029,VALID,18.451,INVALID,360.0,VALID,0.0,
2018-08-11, 00:04:07,VALID,919.707,VALID,0.0,VALID,78.6,VALID,-0.026,VALID,18.515,INVALID,360.0,VALID,0.0,
2018-08-11, 00:05:07,VALID,919.691,VALID,0.0,VALID,78.575,VALID,-0.019,VALID,18.449,INVALID,360.0,VALID,0.0,
2018-08-11, 00:06:07,VALID,919.682,VALID,0.0,VALID,78.457,VALID,0.015,VALID,18.558,INVALID,360.0,VALID,0.0,
2018-08-11, 00:07:07,VALID,919.685,VALID,0.0,VALID,77.91,VALID,0.01,VALID,18.516,INVALID,360.0,VALID,0.0,
2018-08-11, 00:08:07,VALID,919.687,VALID,0.0,VALID,79.464,VALID,0.002,VALID,18.207,INVALID,360.0,VALID,0.0,
2018-08-11, 00:09:07,VALID,919.687,VALID,0.0,VALID,81.112,VALID,0.013,VALID,18.091,INVALID,360.0,VALID,0.0,
2018-08-11, 00:10:07,VALID,919.696,VALID,0.0,VALID,81.259,VALID,0.021,VALID,18.104,INVALID,360.0,VALID,0.0,
2018-08-11, 00:11:07,VALID,919.691,VALID,0.0,VALID,81.006,VALID,0.004,VALID,18.034,INVALID,360.0,VALID,0.0,
2018-08-11, 00:12:07,VALID,919.697,VALID,0.0,VALID,80.477,VALID,-0.002,VALID,17.909,INVALID,360.0,VALID,0.0,
2018-08-11, 00:13:07,VALID,919.7,VALID,0.0,VALID,80.97,VALID,-0.0,VALID,17.635,INVALID,360.0,VALID,0.0,
2018-08-11, 00:14:07,VALID,919.695,VALID,0.0,VALID,81.919,VALID,0.015,VALID,17.26,INVALID,360.0,VALID,0.0,
2018-08-11, 00:15:07,VALID,919.682,VALID,0.0,VALID,84.188,VALID,0.003,VALID,17.039,INVALID,360.0,VALID,0.0,
2018-08-11, 00:16:07,VALID,919.669,VALID,0.0,VALID,85.334,VALID,-0.009,VALID,16.884,INVALID,360.0,VALID,0.0,
2018-08-11, 00:17:07,VALID,919.65,VALID,0.0,VALID,87.864,VALID,0.003,VALID,16.886,INVALID,360.0,VALID,0.0,
2018-08-11, 00:18:07,VALID,919.631,VALID,0.0,VALID,87.614,VALID,0.009,VALID,16.963,INVALID,360.0,VALID,0.0,
2018-08-11, 00:19:07,VALID,919.617,VALID,0.0,VALID,87.261,VALID,-0.009,VALID,16.883,INVALID,360.0,VALID,0.0,
2018-08-11, 00:20:07,VALID,919.601,VALID,0.0,VALID,89.319,VALID,-0.007,VALID,16.801,INVALID,360.0,VALID,0.0,
2018-08-11, 00:21:07,VALID,919.584,VALID,0.0,VALID,88.081,VALID,0.003,VALID,16.585,INVALID,360.0,VALID,0.0,
2018-08-11, 00:22:07,VALID,919.581,VALID,0.0,VALID,88.128,VALID,-0.022,VALID,16.418,INVALID,360.0,VALID,0.0,
2018-08-11, 00:23:07,VALID,919.557,VALID,0.0,VALID,89.501,VALID,-0.018,VALID,16.382,INVALID,360.0,VALID,0.0,
2018-08-11, 00:24:07,VALID,919.513,VALID,0.0,VALID,90.021,VALID,-0.016,VALID,16.502,INVALID,360.0,VALID,0.0,
2018-08-11, 00:25:07,VALID,919.51,VALID,0.0,VALID,88.467,VALID,-0.015,VALID,16.689,INVALID,360.0,VALID,0.0,
2018-08-11, 00:26:07,VALID,919.494,VALID,0.0,VALID,87.574,VALID,-0.019,VALID,16.886,INVALID,360.0,VALID,0.0,
2018-08-11, 00:27:07,VALID,919.49,VALID,0.0,VALID,87.421,VALID,-0.029,VALID,17.123,INVALID,360.0,VALID,0.0,
2018-08-11, 00:28:07,VALID,919.491,VALID,0.0,VALID,85.87,VALID,-0.017,VALID,17.31,INVALID,360.0,VALID,0.0,
2018-08-11, 00:29:07,VALID,919.489,VALID,0.0,VALID,85.186,VALID,-0.007,VALID,17.444,INVALID,360.0,VALID,0.0,
2018-08-11, 00:30:07,VALID,919.475,VALID,0.0,VALID,84.129,VALID,0.009,VALID,17.441,INVALID,360.0,VALID,0.0,
2018-08-11, 00:31:07,VALID,919.459,VALID,0.0,VALID,84.615,VALID,-0.017,VALID,17.317,INVALID,360.0,VALID,0.0,
2018-08-11, 00:32:07,VALID,919.453,VALID,0.0,VALID,85.663,VALID,-0.019,VALID,17.166,INVALID,360.0,VALID,0.0,
2018-08-11, 00:33:07,VALID,919.458,VALID,0.0,VALID,85.447,VALID,-0.027,VALID,16.901,INVALID,360.0,VALID,0.0,
2018-08-11, 00:34:07,VALID,919.464,VALID,0.0,VALID,85.792,VALID,-0.022,VALID,16.534,INVALID,360.0,VALID,0.0,
2018-08-11, 00:35:07,VALID,919.449,VALID,0.0,VALID,87.577,VALID,-0.02,VALID,16.202,INVALID,360.0,VALID,0.0,
2018-08-11, 00:36:07,VALID,919.447,VALID,0.0,VALID,89.657,VALID,-0.005,VALID,16.033,INVALID,360.0,VALID,0.0,
2018-08-11, 00:37:07,VALID,919.418,VALID,0.0,VALID,90.307,VALID,-0.007,VALID,15.928,INVALID,360.0,VALID,0.0,
2018-08-11, 00:38:07,VALID,919.415,VALID,0.0,VALID,92.335,VALID,-0.014,VALID,15.954,INVALID,360.0,VALID,0.0,
2018-08-11, 00:39:07,VALID,919.429,VALID,0.0,VALID,91.769,VALID,-0.038,VALID,15.911,INVALID,360.0,VALID,0.0,
2018-08-11, 00:40:07,VALID,919.429,VALID,0.0,VALID,92.797,VALID,-0.025,VALID,15.969,INVALID,360.0,VALID,0.0,
2018-08-11, 00:41:07,VALID,919.397,VALID,0.0,VALID,94.251,VALID,-0.032,VALID,16.192,INVALID,360.0,VALID,0.0,
2018-08-11, 00:42:07,VALID,919.385,VALID,0.0,VALID,93.239,VALID,0.001,VALID,16.419,INVALID,360.0,VALID,0.0,
2018-08-11, 00:43:07,VALID,919.379,VALID,0.0,VALID,90.189,VALID,0.003,VALID,16.654,INVALID,360.0,VALID,0.0,
2018-08-11, 00:44:07,VALID,919.359,VALID,0.0,VALID,88.125,VALID,-0.027,VALID,16.845,INVALID,360.0,VALID,0.0,
2018-08-11, 00:45:07,VALID,919.35,VALID,0.0,VALID,86.971,VALID,-0.021,VALID,16.985,INVALID,360.0,VALID,0.0,
2018-08-11, 00:46:07,VALID,919.346,VALID,0.0,VALID,85.919,VALID,-0.018,VALID,16.877,INVALID,360.0,VALID,0.0,
2018-08-11, 00:47:07,VALID,919.338,VALID,0.0,VALID,86.87,VALID,0.004,VALID,16.548,INVALID,360.0,VALID,0.0,
2018-08-11, 00:48:07,VALID,919.328,VALID,0.0,VALID,88.072,VALID,0.003,VALID,16.307,INVALID,360.0,VALID,0.0,
2018-08-11, 00:49:07,VALID,919.326,VALID,0.0,VALID,89.558,VALID,-0.006,VALID,16.3,INVALID,360.0,VALID,0.0,
2018-08-11, 00:50:07,VALID,919.306,VALID,0.0,VALID,89.187,VALID,-0.008,VALID,16.443,INVALID,360.0,VALID,0.0,
2018-08-11, 00:51:07,VALID,919.296,VALID,0.0,VALID,88.342,VALID,0.001,VALID,16.593,INVALID,360.0,VALID,0.0,
2018-08-11, 00:52:07,VALID,919.261,VALID,0.0,VALID,88.174,VALID,0.014,VALID,16.588,INVALID,360.0,VALID,0.0,
2018-08-11, 00:53:07,VALID,919.254,VALID,0.0,VALID,88.566,VALID,0.014,VALID,16.544,INVALID,360.0,VALID,0.0,
2018-08-11, 00:54:07,VALID,919.219,VALID,0.0,VALID,88.175,VALID,0.001,VALID,16.65,INVALID,360.0,VALID,0.0,
2018-08-11, 00:55:07,VALID,919.199,VALID,0.0,VALID,87.203,VALID,0.019,VALID,16.831,INVALID,360.0,VALID,0.0,
2018-08-11, 00:56:07,VALID,919.187,VALID,0.0,VALID,86.86,VALID,-0.01,VALID,16.805,INVALID,360.0,VALID,0.0,
2018-08-11, 00:57:07,VALID,919.179,VALID,0.0,VALID,86.875,VALID,0.008,VALID,16.651,INVALID,360.0,VALID,0.0,
2018-08-11, 00:58:07,VALID,919.173,VALID,0.0,VALID,87.34,VALID,0.015,VALID,16.627,INVALID,360.0,VALID,0.0,
2018-08-11, 00:59:07,VALID,919.16,VALID,0.0,VALID,87.242,VALID,-0.001,VALID,16.584,INVALID,360.0,VALID,0.0,
2018-08-11, 01:00:07,VALID,919.173,VALID,0.0,VALID,87.657,VALID,0.001,VALID,16.422,INVALID,360.0,VALID,0.0,
2018-08-11, 01:01:07,VALID,919.169,VALID,0.0,VALID,87.652,VALID,0.008,VALID,16.208,INVALID,360.0,VALID,0.0,
2018-08-11, 01:02:07,VALID,919.159,VALID,0.0,VALID,89.486,VALID,0.018,VALID,16.041,INVALID,360.0,VALID,0.0,
2018-08-11, 01:03:07,VALID,919.164,VALID,0.0,VALID,89.524,VALID,0.029,VALID,15.994,INVALID,360.0,VALID,0.0,
2018-08-11, 01:04:07,VALID,919.147,VALID,0.0,VALID,89.673,VALID,0.014,VALID,15.851,INVALID,360.0,VALID,0.0,
2018-08-11, 01:05:07,VALID,919.135,VALID,0.0,VALID,90.572,VALID,0.024,VALID,15.711,INVALID,360.0,VALID,0.0,
2018-08-11, 01:06:07,VALID,919.129,VALID,0.0,VALID,90.859,VALID,0.005,VALID,15.652,INVALID,360.0,VALID,0.0,
2018-08-11, 01:07:07,VALID,919.112,VALID,0.0,VALID,91.395,VALID,-0.006,VALID,15.662,INVALID,360.0,VALID,0.0,
2018-08-11, 01:08:07,VALID,919.096,VALID,0.0,VALID,91.458,VALID,0.001,VALID,15.709,INVALID,360.0,VALID,0.0,
2018-08-11, 01:09:07,VALID,919.072,VALID,0.0,VALID,91.323,VALID,-0.015,VALID,15.724,INVALID,360.0,VALID,0.0,
2018-08-11, 01:10:07,VALID,919.059,VALID,0.0,VALID,90.83,VALID,-0.008,VALID,15.681,INVALID,360.0,VALID,0.0,
2018-08-11, 01:11:07,VALID,919.037,VALID,0.0,VALID,90.681,VALID,0.01,VALID,15.652,INVALID,360.0,VALID,0.0,
2018-08-11, 01:12:07,VALID,919.005,VALID,0.0,VALID,91.957,VALID,-0.015,VALID,15.683,INVALID,360.0,VALID,0.0,
2018-08-11, 01:13:07,VALID,918.997,VALID,0.0,VALID,92.439,VALID,-0.016,VALID,15.76,VALID,50.0,VALID,0.0,
2018-08-11, 01:14:07,VALID,918.996,VALID,0.0,VALID,93.6,VALID,-0.001,VALID,15.988,VALID,71.0,VALID,0.0,
2018-08-11, 01:15:07,VALID,918.985,VALID,0.0,VALID,91.147,VALID,-0.004,VALID,16.44,VALID,77.0,VALID,0.0,
2018-08-11, 01:16:07,VALID,918.989,VALID,0.0,VALID,88.037,VALID,-0.025,VALID,16.87,VALID,112.0,VALID,0.0,
2018-08-11, 01:17:07,VALID,918.987,VALID,0.0,VALID,87.393,VALID,-0.015,VALID,16.858,VALID,118.0,VALID,0.0,
2018-08-11, 01:18:07,VALID,918.978,VALID,0.0,VALID,87.669,VALID,-0.014,VALID,16.749,VALID,115.0,VALID,0.0,
2018-08-11, 01:19:07,VALID,918.979,VALID,0.0,VALID,88.145,VALID,-0.013,VALID,16.583,VALID,95.0,VALID,0.0,
2018-08-11, 01:20:07,VALID,918.978,VALID,0.0,VALID,87.525,VALID,-0.026,VALID,16.58,VALID,82.0,VALID,0.0,
2018-08-11, 01:21:07,VALID,918.956,VALID,0.0,VALID,85.641,VALID,-0.009,VALID,16.343,VALID,136.0,VALID,0.0,
2018-08-11, 01:22:07,VALID,918.938,VALID,0.0,VALID,87.793,VALID,0.007,VALID,16.06,VALID,132.0,VALID,0.0,
2018-08-11, 01:23:07,VALID,918.931,VALID,0.0,VALID,89.403,VALID,-0.003,VALID,15.972,VALID,138.0,VALID,0.0,
2018-08-11, 01:24:07,VALID,918.917,VALID,0.0,VALID,90.268,VALID,-0.007,VALID,15.982,VALID,130.0,VALID,0.0,
2018-08-11, 01:25:07,VALID,918.898,VALID,0.0,VALID,90.753,VALID,-0.013,VALID,16.033,VALID,114.0,VALID,0.0,
2018-08-11, 01:26:07,VALID,918.892,VALID,0.0,VALID,89.908,VALID,0.001,VALID,16.045,VALID,103.0,VALID,0.0,
2018-08-11, 01:27:07,VALID,918.897,VALID,0.0,VALID,90.087,VALID,-0.006,VALID,16.079,VALID,103.0,VALID,0.0,
2018-08-11, 01:28:07,VALID,918.905,VALID,0.0,VALID,90.209,VALID,-0.003,VALID,16.194,VALID,136.0,VALID,0.0,
2018-08-11, 01:29:07,VALID,918.911,VALID,0.0,VALID,88.529,VALID,-0.01,VALID,16.468,VALID,233.0,VALID,0.0,
2018-08-11, 01:30:07,VALID,918.915,VALID,0.0,VALID,86.824,VALID,0.012,VALID,16.691,VALID,234.0,VALID,0.0,
2018-08-11, 01:31:07,VALID,918.904,VALID,0.0,VALID,84.909,VALID,0.005,VALID,16.64,VALID,234.0,VALID,0.0,
2018-08-11, 01:32:07,VALID,918.914,VALID,0.0,VALID,86.505,VALID,-0.002,VALID,16.452,VALID,234.0,VALID,0.0,
2018-08-11, 01:33:07,VALID,918.919,VALID,0.0,VALID,87.884,VALID,-0.016,VALID,16.234,VALID,234.0,VALID,0.0,
2018-08-11, 01:34:07,VALID,918.93,VALID,0.0,VALID,89.24,VALID,-0.003,VALID,16.096,VALID,234.0,VALID,0.0,
2018-08-11, 01:35:07,VALID,918.93,VALID,0.0,VALID,89.852,VALID,-0.019,VALID,16.086,VALID,234.0,VALID,0.0,
2018-08-11, 01:36:07,VALID,918.93,VALID,0.0,VALID,89.281,VALID,0.007,VALID,16.209,VALID,234.0,VALID,0.0,
2018-08-11, 01:37:07,VALID,918.941,VALID,0.0,VALID,87.914,VALID,0.014,VALID,16.341,VALID,234.0,VALID,0.0,
2018-08-11, 01:38:07,VALID,918.95,VALID,0.0,VALID,86.846,VALID,-0.015,VALID,16.171,VALID,234.0,VALID,0.0,
2018-08-11, 01:39:07,VALID,918.949,VALID,0.0,VALID,89.478,VALID,0.009,VALID,16.09,VALID,234.0,VALID,0.0,
2018-08-11, 01:40:07,VALID,918.931,VALID,0.0,VALID,89.218,VALID,0.002,VALID,16.084,VALID,237.0,VALID,0.0,
2018-08-11, 01:41:07,VALID,918.918,VALID,0.0,VALID,88.702,VALID,-0.012,VALID,15.917,VALID,358.0,VALID,0.0,
2018-08-11, 01:42:07,VALID,918.916,VALID,0.0,VALID,90.888,VALID,-0.001,VALID,15.837,VALID,14.0,VALID,0.0,
2018-08-11, 01:43:07,VALID,918.879,VALID,0.0,VALID,90.921,VALID,-0.007,VALID,16.144,VALID,59.0,VALID,0.0,
2018-08-11, 01:44:07,VALID,918.864,VALID,0.0,VALID,88.172,VALID,-0.004,VALID,16.711,VALID,61.0,VALID,0.0,
2018-08-11, 01:45:07,VALID,918.842,VALID,0.0,VALID,86.252,VALID,-0.014,VALID,17.036,VALID,61.0,VALID,0.0,
2018-08-11, 01:46:07,VALID,918.835,VALID,0.0,VALID,85.357,VALID,0.018,VALID,17.033,VALID,61.0,VALID,0.0,
2018-08-11, 01:47:07,VALID,918.816,VALID,0.0,VALID,83.847,VALID,0.003,VALID,16.777,VALID,61.0,VALID,0.0,
2018-08-11, 01:48:06,VALID,918.805,VALID,0.0,VALID,87.671,VALID,0.03,VALID,16.611,VALID,61.0,VALID,0.0,
2018-08-11, 01:49:06,VALID,918.772,VALID,0.0,VALID,88.029,VALID,0.009,VALID,16.523,VALID,61.0,VALID,0.0,
2018-08-11, 01:50:06,VALID,918.748,VALID,0.0,VALID,87.956,VALID,0.019,VALID,16.341,VALID,61.0,VALID,0.0,
2018-08-11, 01:51:06,VALID,918.736,VALID,0.0,VALID,88.286,VALID,0.006,VALID,16.2,VALID,61.0,VALID,0.0,
2018-08-11, 01:52:06,VALID,918.702,VALID,0.0,VALID,90.075,VALID,-0.011,VALID,16.186,VALID,61.0,VALID,0.0,
2018-08-11, 01:53:06,VALID,918.696,VALID,0.0,VALID,90.031,VALID,-0.008,VALID,16.178,VALID,61.0,VALID,0.0,
2018-08-11, 01:54:06,VALID,918.699,VALID,0.0,VALID,90.064,VALID,0.001,VALID,16.117,VALID,61.0,VALID,0.0,
2018-08-11, 01:55:06,VALID,918.688,VALID,0.0,VALID,90.694,VALID,-0.017,VALID,16.122,VALID,61.0,VALID,0.0,
2018-08-11, 01:56:06,VALID,918.694,VALID,0.0,VALID,89.137,VALID,-0.008,VALID,16.099,VALID,61.0,VALID,0.0,
2018-08-11, 01:57:06,VALID,918.723,VALID,0.0,VALID,88.267,VALID,0.01,VALID,15.979,VALID,99.0,VALID,0.0,
2018-08-11, 01:58:06,VALID,918.722,VALID,0.0,VALID,90.554,VALID,0.021,VALID,16.096,VALID,208.0,VALID,0.0,
2018-08-11, 01:59:06,VALID,918.715,VALID,0.0,VALID,89.555,VALID,-0.0,VALID,16.197,VALID,209.0,VALID,0.0,
2018-08-11, 02:00:06,VALID,918.712,VALID,0.0,VALID,88.266,VALID,-0.01,VALID,16.06,VALID,207.0,VALID,0.0,
2018-08-11, 02:01:06,VALID,918.716,VALID,0.0,VALID,90.831,VALID,-0.012,VALID,16.08,VALID,201.0,VALID,0.0,
2018-08-11, 02:02:06,VALID,918.696,VALID,0.0,VALID,88.368,VALID,0.009,VALID,15.98,VALID,232.0,VALID,0.0,
2018-08-11, 02:03:06,VALID,918.671,VALID,0.0,VALID,89.415,VALID,-0.007,VALID,15.968,VALID,232.0,VALID,0.0,
2018-08-11, 02:04:06,VALID,918.657,VALID,0.0,VALID,89.598,VALID,-0.006,VALID,16.016,VALID,228.0,VALID,0.0,
2018-08-11, 02:05:06,VALID,918.656,VALID,0.0,VALID,88.694,VALID,-0.01,VALID,15.932,VALID,165.0,VALID,0.0,
2018-08-11, 02:06:06,VALID,918.649,VALID,0.0,VALID,89.488,VALID,0.001,VALID,15.813,VALID,161.0,VALID,0.0,
2018-08-11, 02:07:06,VALID,918.638,VALID,0.0,VALID,90.833,VALID,0.012,VALID,15.913,VALID,110.0,VALID,0.0,
2018-08-11, 02:08:06,VALID,918.653,VALID,0.0,VALID,89.612,VALID,0.006,VALID,15.963,VALID,80.0,VALID,0.0,
2018-08-11, 02:09:06,VALID,918.656,VALID,0.0,VALID,88.272,VALID,0.013,VALID,15.891,VALID,96.0,VALID,0.0,
2018-08-11, 02:10:06,VALID,918.669,VALID,0.0,VALID,88.607,VALID,0.022,VALID,15.759,VALID,93.0,VALID,0.0,
2018-08-11, 02:11:06,VALID,918.673,VALID,0.0,VALID,89.283,VALID,0.021,VALID,15.652,VALID,93.0,VALID,0.0,
2018-08-11, 02:12:06,VALID,918.679,VALID,0.0,VALID,91.022,VALID,0.016,VALID,15.594,VALID,95.0,VALID,0.0,
2018-08-11, 02:13:06,VALID,918.681,VALID,0.0,VALID,91.72,VALID,0.017,VALID,15.617,VALID,107.0,VALID,0.0,
2018-08-11, 02:14:06,VALID,918.676,VALID,0.0,VALID,91.758,VALID,0.007,VALID,15.646,VALID,106.0,VALID,0.0,
2018-08-11, 02:15:06,VALID,918.655,VALID,0.0,VALID,91.437,VALID,0.026,VALID,15.658,VALID,106.0,VALID,0.0,
2018-08-11, 02:16:06,VALID,918.639,VALID,0.0,VALID,91.396,VALID,0.012,VALID,15.64,VALID,106.0,VALID,0.0,
2018-08-11, 02:17:06,VALID,918.62,VALID,0.0,VALID,91.327,VALID,0.019,VALID,15.633,VALID,104.0,VALID,0.0,
2018-08-11, 02:18:06,VALID,918.61,VALID,0.0,VALID,91.531,VALID,0.014,VALID,15.648,VALID,110.0,VALID,0.0,
2018-08-11, 02:19:06,VALID,918.592,VALID,0.0,VALID,91.477,VALID,0.023,VALID,15.679,VALID,113.0,VALID,0.0,
2018-08-11, 02:20:06,VALID,918.579,VALID,0.0,VALID,91.423,VALID,0.021,VALID,15.653,VALID,101.0,VALID,0.0,
2018-08-11, 02:21:06,VALID,918.556,VALID,0.0,VALID,91.75,VALID,0.001,VALID,15.604,VALID,92.0,VALID,0.0,
2018-08-11, 02:22:06,VALID,918.555,VALID,0.0,VALID,92.25,VALID,-0.059,VALID,15.557,VALID,88.0,VALID,0.0,
2018-08-11, 02:23:06,VALID,918.542,VALID,0.0,VALID,92.188,VALID,-0.039,VALID,15.504,VALID,88.0,VALID,0.0,
2018-08-11, 02:24:06,VALID,918.544,VALID,0.0,VALID,92.786,VALID,-0.054,VALID,15.508,VALID,85.0,VALID,0.0,
2018-08-11, 02:25:06,VALID,918.544,VALID,0.0,VALID,92.667,VALID,-0.041,VALID,15.476,VALID,64.0,VALID,0.0,
2018-08-11, 02:26:06,VALID,918.565,VALID,0.0,VALID,91.922,VALID,-0.051,VALID,15.374,VALID,57.0,VALID,0.0,
2018-08-11, 02:27:06,VALID,918.564,VALID,0.0,VALID,92.794,VALID,-0.045,VALID,15.352,VALID,57.0,VALID,0.0,
2018-08-11, 02:28:06,VALID,918.561,VALID,0.0,VALID,93.305,VALID,-0.018,VALID,15.467,VALID,44.0,VALID,0.0,
2018-08-11, 02:29:06,VALID,918.535,VALID,0.0,VALID,92.196,VALID,0.013,VALID,15.568,VALID,37.0,VALID,0.0,
2018-08-11, 02:30:06,VALID,918.531,VALID,0.0,VALID,91.507,VALID,0.011,VALID,15.632,VALID,37.0,VALID,0.0,
2018-08-11, 02:31:06,VALID,918.517,VALID,0.0,VALID,90.833,VALID,-0.006,VALID,15.605,VALID,37.0,VALID,0.0,
2018-08-11, 02:32:06,VALID,918.494,VALID,0.0,VALID,90.128,VALID,-0.009,VALID,15.547,VALID,37.0,VALID,0.0,
2018-08-11, 02:33:06,VALID,918.477,VALID,0.0,VALID,90.707,VALID,-0.013,VALID,15.523,VALID,37.0,VALID,0.0,
2018-08-11, 02:34:06,VALID,918.465,VALID,0.0,VALID,91.577,VALID,-0.011,VALID,15.573,VALID,37.0,VALID,0.0,
2018-08-11, 02:35:06,VALID,918.461,VALID,0.0,VALID,90.968,VALID,-0.005,VALID,15.635,VALID,37.0,VALID,0.0,
2018-08-11, 02:36:06,VALID,918.45,VALID,0.0,VALID,90.883,VALID,-0.02,VALID,15.736,VALID,37.0,VALID,0.0,
2018-08-11, 02:37:06,VALID,918.435,VALID,0.0,VALID,89.082,VALID,-0.014,VALID,15.709,VALID,39.0,VALID,0.0,
2018-08-11, 02:38:06,VALID,918.43,VALID,0.0,VALID,91.148,VALID,-0.02,VALID,15.661,VALID,39.0,VALID,0.0,
2018-08-11, 02:39:06,VALID,918.411,VALID,0.0,VALID,92.091,VALID,-0.007,VALID,15.7,VALID,39.0,VALID,0.0,
2018-08-11, 02:40:06,VALID,918.402,VALID,0.0,VALID,92.13,VALID,-0.018,VALID,15.814,VALID,39.0,VALID,0.0,
2018-08-11, 02:41:06,VALID,918.379,VALID,0.0,VALID,90.36,VALID,-0.03,VALID,15.862,VALID,57.0,VALID,0.0,
2018-08-11, 02:42:06,VALID,918.369,VALID,0.0,VALID,88.811,VALID,-0.03,VALID,15.66,VALID,136.0,VALID,0.0,
2018-08-11, 02:43:06,VALID,918.327,VALID,0.0,VALID,90.424,VALID,-0.032,VALID,15.649,VALID,301.0,VALID,0.0,
2018-08-11, 02:44:06,VALID,918.298,VALID,0.0,VALID,89.452,VALID,-0.014,VALID,15.857,VALID,38.0,VALID,0.0,
2018-08-11, 02:45:06,VALID,918.283,VALID,0.0,VALID,87.765,VALID,-0.023,VALID,15.693,VALID,64.0,VALID,0.0,
2018-08-11, 02:46:06,VALID,918.262,VALID,0.0,VALID,90.203,VALID,-0.024,VALID,15.585,VALID,47.0,VALID,0.0,
2018-08-11, 02:47:06,VALID,918.246,VALID,0.0,VALID,91.075,VALID,-0.03,VALID,15.547,VALID,24.0,VALID,0.0,
2018-08-11, 02:48:06,VALID,918.245,VALID,0.0,VALID,91.194,VALID,-0.039,VALID,15.7,VALID,349.0,VALID,0.0,
2018-08-11, 02:49:06,VALID,918.234,VALID,0.0,VALID,89.716,VALID,-0.039,VALID,15.698,VALID,190.0,VALID,0.0,
2018-08-11, 02:50:06,VALID,918.244,VALID,0.0,VALID,90.511,VALID,-0.034,VALID,15.749,VALID,95.0,VALID,0.0,
2018-08-11, 02:51:06,VALID,918.225,VALID,0.0,VALID,90.481,VALID,-0.01,VALID,15.743,VALID,86.0,VALID,0.0,
2018-08-11, 02:52:06,VALID,918.231,VALID,0.0,VALID,90.844,VALID,0.014,VALID,15.739,VALID,86.0,VALID,0.0,
2018-08-11, 02:53:06,VALID,918.227,VALID,0.0,VALID,90.96,VALID,0.01,VALID,15.854,VALID,38.0,VALID,0.0,
2018-08-11, 02:54:06,VALID,918.197,VALID,0.0,VALID,89.355,VALID,0.011,VALID,15.989,VALID,27.0,VALID,0.0,
2018-08-11, 02:55:06,VALID,918.196,VALID,0.0,VALID,87.546,VALID,0.002,VALID,16.314,VALID,119.0,VALID,0.0,
2018-08-11, 02:56:06,VALID,918.21,VALID,0.0,VALID,84.832,VALID,-0.002,VALID,16.317,VALID,87.0,VALID,0.0,
2018-08-11, 02:57:06,VALID,918.21,VALID,0.0,VALID,85.114,VALID,-0.006,VALID,16.113,VALID,149.0,VALID,0.0,
2018-08-11, 02:58:06,VALID,918.204,VALID,0.0,VALID,86.442,VALID,-0.008,VALID,16.087,VALID,150.0,VALID,0.0,
2018-08-11, 02:59:06,VALID,918.212,VALID,0.0,VALID,86.064,VALID,-0.02,VALID,16.191,VALID,135.0,VALID,0.0,
2018-08-11, 03:00:06,VALID,918.207,VALID,0.0,VALID,84.193,VALID,-0.006,VALID,16.052,VALID,105.0,VALID,0.0,
2018-08-11, 03:01:06,VALID,918.216,VALID,0.0,VALID,85.992,VALID,0.002,VALID,15.841,VALID,130.0,VALID,0.0,
2018-08-11, 03:02:06,VALID,918.211,VALID,0.0,VALID,87.074,VALID,0.004,VALID,15.733,VALID,114.0,VALID,0.0,
2018-08-11, 03:03:06,VALID,918.223,VALID,0.0,VALID,87.378,VALID,0.012,VALID,15.615,VALID,132.0,VALID,0.0,
2018-08-11, 03:04:06,VALID,918.222,VALID,0.0,VALID,88.657,VALID,-0.0,VALID,15.471,VALID,133.0,VALID,0.0,
2018-08-11, 03:05:06,VALID,918.228,VALID,0.0,VALID,89.902,VALID,0.014,VALID,15.438,VALID,155.0,VALID,0.0,
2018-08-11, 03:06:06,VALID,918.211,VALID,0.0,VALID,90.497,VALID,0.006,VALID,15.5,VALID,139.0,VALID,0.0,
2018-08-11, 03:07:06,VALID,918.201,VALID,0.0,VALID,90.675,VALID,-0.014,VALID,15.465,VALID,120.0,VALID,0.0,
2018-08-11, 03:08:06,VALID,918.178,VALID,0.0,VALID,91.251,VALID,0.011,VALID,15.386,VALID,123.0,VALID,0.0,
2018-08-11, 03:09:06,VALID,918.153,VALID,0.0,VALID,91.805,VALID,0.022,VALID,15.372,VALID,135.0,VALID,0.0,
2018-08-11, 03:10:06,VALID,918.144,VALID,0.0,VALID,92.808,VALID,0.023,VALID,15.459,VALID,123.0,VALID,0.0,
2018-08-11, 03:11:06,VALID,918.139,VALID,0.0,VALID,91.947,VALID,-0.0,VALID,15.425,VALID,145.0,VALID,0.0,
2018-08-11, 03:12:06,VALID,918.155,VALID,0.0,VALID,92.342,VALID,0.033,VALID,15.424,VALID,164.0,VALID,0.0,
2018-08-11, 03:13:06,VALID,918.151,VALID,0.0,VALID,91.751,VALID,0.007,VALID,15.381,VALID,131.0,VALID,0.0,
2018-08-11, 03:14:06,VALID,918.162,VALID,0.0,VALID,90.99,VALID,-0.008,VALID,15.257,VALID,124.0,VALID,0.0,
2018-08-11, 03:15:06,VALID,918.149,VALID,0.0,VALID,91.757,VALID,-0.014,VALID,15.183,VALID,127.0,VALID,0.0,
2018-08-11, 03:16:06,VALID,918.137,VALID,0.0,VALID,92.247,VALID,0.007,VALID,15.189,VALID,130.0,VALID,0.0,
2018-08-11, 03:17:06,VALID,918.127,VALID,0.0,VALID,92.768,VALID,0.019,VALID,15.288,VALID,133.0,VALID,0.0,
2018-08-11, 03:18:06,VALID,918.121,VALID,0.0,VALID,92.199,VALID,0.022,VALID,15.359,VALID,143.0,VALID,0.0,
2018-08-11, 03:19:06,VALID,918.108,VALID,0.0,VALID,91.923,VALID,0.015,VALID,15.418,VALID,143.0,VALID,0.0,
2018-08-11, 03:20:06,VALID,918.088,VALID,0.0,VALID,91.099,VALID,0.005,VALID,15.425,VALID,138.0,VALID,0.0,
2018-08-11, 03:21:06,VALID,918.074,VALID,0.0,VALID,91.431,VALID,-0.009,VALID,15.45,VALID,119.0,VALID,0.0,
2018-08-11, 03:22:06,VALID,918.058,VALID,0.0,VALID,91.505,VALID,-0.034,VALID,15.532,VALID,118.0,VALID,0.0,
2018-08-11, 03:23:06,VALID,918.041,VALID,0.0,VALID,91.009,VALID,-0.018,VALID,15.668,VALID,117.0,VALID,0.0,
2018-08-11, 03:24:06,VALID,918.018,VALID,0.0,VALID,89.788,VALID,-0.022,VALID,15.849,VALID,131.0,VALID,0.0,
2018-08-11, 03:25:06,VALID,918.016,VALID,0.0,VALID,87.71,VALID,-0.015,VALID,16.144,VALID,144.0,VALID,0.0,
2018-08-11, 03:26:06,VALID,917.998,VALID,0.0,VALID,86.389,VALID,-0.036,VALID,16.304,VALID,129.0,VALID,0.0,
2018-08-11, 03:27:06,VALID,918.008,VALID,0.0,VALID,85.451,VALID,-0.018,VALID,16.157,VALID,118.0,VALID,0.0,
2018-08-11, 03:28:06,VALID,917.993,VALID,0.0,VALID,85.988,VALID,-0.032,VALID,15.842,VALID,112.0,VALID,0.0,
2018-08-11, 03:29:06,VALID,917.986,VALID,0.0,VALID,88.001,VALID,-0.013,VALID,15.693,VALID,119.0,VALID,0.0,
2018-08-11, 03:30:06,VALID,917.994,VALID,0.0,VALID,88.1,VALID,-0.029,VALID,15.781,VALID,144.0,VALID,0.0,
2018-08-11, 03:31:06,VALID,918.003,VALID,0.0,VALID,87.146,VALID,-0.017,VALID,15.947,VALID,141.0,VALID,0.0,
2018-08-11, 03:32:06,VALID,918.009,VALID,0.0,VALID,86.449,VALID,-0.009,VALID,16.041,VALID,142.0,VALID,0.0,
2018-08-11, 03:33:06,VALID,918.004,VALID,0.0,VALID,85.961,VALID,-0.018,VALID,16.072,VALID,142.0,VALID,0.0,
2018-08-11, 03:34:06,VALID,917.994,VALID,0.0,VALID,86.146,VALID,-0.033,VALID,16.133,VALID,136.0,VALID,0.0,
2018-08-11, 03:35:06,VALID,917.98,VALID,0.0,VALID,86.23,VALID,-0.027,VALID,16.143,VALID,144.0,VALID,0.0,
2018-08-11, 03:36:06,VALID,917.962,VALID,0.0,VALID,85.118,VALID,0.0,VALID,16.248,VALID,173.0,VALID,0.0,
2018-08-11, 03:37:06,VALID,917.947,VALID,0.0,VALID,84.021,VALID,0.012,VALID,16.351,VALID,148.0,VALID,0.0,
2018-08-11, 03:38:06,VALID,917.919,VALID,0.0,VALID,84.318,VALID,0.022,VALID,16.297,VALID,148.0,VALID,0.0,
2018-08-11, 03:39:06,VALID,917.899,VALID,0.0,VALID,84.802,VALID,0.037,VALID,16.183,VALID,142.0,VALID,0.0,
2018-08-11, 03:40:06,VALID,917.881,VALID,0.0,VALID,85.175,VALID,0.022,VALID,16.203,VALID,92.0,VALID,0.0,
2018-08-11, 03:41:06,VALID,917.882,VALID,0.0,VALID,85.509,VALID,0.036,VALID,16.223,VALID,91.0,VALID,0.0,